This is the latest recevied weather packets stored in our database for station/object GBTWP-2. If no packets are shown the sender has not sent any weather packets the latest 10 day(s).
| Time | Temp. | Humidity | Pressure | Rain* | Wind** | Luminosity | Snow |
|---|---|---|---|---|---|---|---|
| 1787383319 | 18.89° C | 77% | 1016.1 hPa | 0 mm | - | 0 W/m² | - |
| 1787383020 | 18.89° C | 77% | 1016.1 hPa | 0 mm | - | 0 W/m² | - |
| 1787382719 | 18.33° C | 77% | 1016.3 hPa | 0 mm | - | 0 W/m² | - |
| 1787382420 | 18.33° C | 78% | 1016.3 hPa | 0 mm | - | 0 W/m² | - |
| 1787382119 | 18.89° C | 77% | 1016.2 hPa | 0 mm | - | 0 W/m² | - |
| 1787381820 | 18.89° C | 76% | 1016.3 hPa | 0 mm | - | 0 W/m² | - |
| 1787381519 | 18.89° C | 77% | 1016.4 hPa | 0 mm | - | 0 W/m² | - |
| 1787381221 | 18.89° C | 77% | 1016.3 hPa | 0 mm | - | 0 W/m² | - |
| 1787380919 | 18.89° C | 77% | 1016.5 hPa | 0 mm | - | 0 W/m² | - |
| 1787380620 | 18.33° C | 79% | 1016.5 hPa | 0 mm | - | 0 W/m² | - |
| 1787380319 | 18.33° C | 79% | 1016.6 hPa | 0 mm | - | 0 W/m² | - |
| 1787380020 | 18.33° C | 79% | 1016.7 hPa | 0 mm | - | 0 W/m² | - |
| 1787379719 | 18.33° C | 79% | 1017 hPa | 0 mm | - | 0 W/m² | - |
| 1787379421 | 18.33° C | 78% | 1016.9 hPa | 0 mm | - | 0 W/m² | - |
| 1787379119 | 18.33° C | 78% | 1017 hPa | 0 mm | - | 0 W/m² | - |
| 1787378820 | 18.33° C | 78% | 1017 hPa | 0 mm | - | 0 W/m² | - |
| 1787378519 | 18.33° C | 79% | 1017 hPa | 0 mm | - | 0 W/m² | - |
| 1787378220 | 18.33° C | 77% | 1017 hPa | 0 mm | - | 0 W/m² | - |
| 1787377919 | 17.78° C | 81% | 1017.3 hPa | 0 mm | - | 0 W/m² | - |
| 1787377620 | 17.78° C | 82% | 1017.3 hPa | 0 mm | - | 0 W/m² | - |
| 1787377319 | 17.78° C | 82% | 1016.9 hPa | 0 mm | - | 0 W/m² | - |
| 1787377020 | 17.78° C | 82% | 1017.2 hPa | 0 mm | - | 0 W/m² | - |
| 1787376719 | 17.78° C | 82% | 1017.6 hPa | 0 mm | - | 0 W/m² | - |
| 1787376420 | 17.78° C | 81% | 1017.3 hPa | 0 mm | - | 0 W/m² | - |
| 1787376119 | 18.33° C | 81% | 1017.6 hPa | 0 mm | - | 0 W/m² | - |
* Rain latest hour (hover to see other rain measurements)
** Current wind speed in m/s (hover to see current wind gust speed)